WA6MHA-11 Weather Reports


time (UTC)temp
C
wind
direction
speed
KPH
gust
KPH
rain 1hr
cm
rain 24hr
cm
rain mn
cm
humidity
%
barometer
mb
20260507110655 10 270 0.0 1.6 0.00 0.00 0.00 55 1017.2
20260507110249 10 270 0.0 0.0 0.00 0.00 0.00 55 1017.2
20260507105848 10 233 0.0 0.0 0.00 0.00 0.00 55 1017.2
20260507105047 10 42 0.0 0.0 0.00 0.00 0.00 55 1017.2
20260507104644 10 45 0.0 0.0 0.00 0.00 0.00 55 1017.2
20260507104243 10 45 0.0 0.0 0.00 0.00 0.00 55 1017.2
20260507103841 10 42 0.0 0.0 0.00 0.00 0.00 55 1017.2
20260507102638 10 319 0.0 0.0 0.00 0.00 0.00 55 1017.3
20260507101835 10 292 0.0 0.0 0.00 0.00 0.00 55 1017.4
20260507101433 10 283 0.0 0.0 0.00 0.00 0.00 55 1017.4
20260507101032 10 232 0.0 0.0 0.00 0.00 0.00 55 1017.4
20260507100230 11 306 0.0 0.0 0.00 0.00 0.00 55 1017.4
20260507095829 11 274 0.0 1.6 0.00 0.00 0.00 55 1017.4
20260507095428 10 292 0.0 0.0 0.00 0.00 0.00 54 1017.5
20260507094625 11 339 0.0 0.0 0.00 0.00 0.00 54 1017.5
20260507094223 11 279 0.0 0.0 0.00 0.00 0.00 54 1017.6
20260507093822 11 274 0.0 0.0 0.00 0.00 0.00 54 1017.7
20260507090612 11 274 0.0 0.0 0.00 0.00 0.00 54 1017.9
20260507090211 11 274 0.0 0.0 0.00 0.00 0.00 54 1018.0
20260507085809 11 288 0.0 0.0 0.00 0.00 0.00 53 1018.0
20260507085409 11 292 0.0 0.0 0.00 0.00 0.00 53 1018.0
20260507085007 11 351 0.0 3.2 0.00 0.00 0.00 53 1018.0
20260507084606 11 182 0.0 0.0 0.00 0.00 0.00 53 1018.1
20260507084205 11 274 0.0 1.6 0.00 0.00 0.00 53 1018.1
20260507083803 11 306 0.0 0.0 0.00 0.00 0.00 53 1018.2
20260507082954 11 186 0.0 0.0 0.00 0.00 0.00 53 1018.3
20260507081755 12 279 0.0 0.0 0.00 0.00 0.00 53 1018.3
20260507081349 12 235 0.0 1.6 0.00 0.00 0.00 52 1018.4
20260507081110 12 270 0.0 1.6 0.00 0.00 0.00 52 1018.4
20260507080948 12 270 0.0 1.6 0.00 0.00 0.00 52 1018.4
20260507080547 12 180 0.0 1.6 0.00 0.00 0.00 52 1018.4
20260507080147 12 274 0.0 1.6 0.00 0.00 0.00 52 1018.5
20260507075343 12 279 1.6 1.6 0.00 0.00 0.00 52 1018.4
20260507074541 12 315 0.0 0.0 0.00 0.00 0.00 52 1018.4
20260507074139 12 328 0.0 0.0 0.00 0.00 0.00 52 1018.5
20260507072937 12 229 0.0 0.0 0.00 0.00 0.00 51 1018.5
20260507072133 13 279 0.0 0.0 0.00 0.00 0.00 51 1018.6
20260507071731 13 288 0.0 0.0 0.00 0.00 0.00 51 1018.6
20260507070129 13 279 0.0 0.0 0.00 0.00 0.00 50 1018.5
20260507065727 13 274 0.0 0.0 0.00 0.00 0.00 50 1018.5
20260507064926 13 270 0.0 0.0 0.00 0.00 0.00 50 1018.4
20260507064521 13 274 0.0 0.0 0.00 0.00 0.00 50 1018.5
20260507064120 13 202 0.0 0.0 0.00 0.00 0.00 50 1018.5
20260507063718 13 182 0.0 0.0 0.00 0.00 0.00 50 1018.5
20260507063317 13 234 0.0 0.0 0.00 0.00 0.00 50 1018.6
20260507062515 13 292 0.0 0.0 0.00 0.00 0.00 49 1018.6
20260507062114 13 182 0.0 0.0 0.00 0.00 0.00 49 1018.6
20260507061713 13 232 0.0 0.0 0.00 0.00 0.00 49 1018.5
20260507061311 13 42 0.0 0.0 0.00 0.00 0.00 49 1018.4
20260507055709 14 78 1.6 1.6 0.00 0.00 0.00 48 1018.5
20260507055306 14 42 0.0 1.6 0.00 0.00 0.00 48 1018.5
20260507054903 14 78 0.0 0.0 0.00 0.00 0.00 48 1018.5
20260507054502 14 85 0.0 0.0 0.00 0.00 0.00 48 1018.5
20260507054100 14 81 1.6 1.6 0.00 0.00 0.00 48 1018.4
20260507053659 14 135 0.0 0.0 0.00 0.00 0.00 48 1018.5
20260507053258 14 103 0.0 1.6 0.00 0.00 0.00 48 1018.5
20260507052857 15 135 3.2 3.2 0.00 0.00 0.00 47 1018.5
20260507052455 15 137 3.2 3.2 0.00 0.00 0.00 47 1018.5
20260507052054 15 135 3.2 3.2 0.00 0.00 0.00 47 1018.5
20260507051653 15 135 1.6 3.2 0.00 0.00 0.00 47 1018.5
20260507051252 15 135 3.2 3.2 0.00 0.00 0.00 47 1018.5
20260507050850 15 135 1.6 3.2 0.00 0.00 0.00 47 1018.4
20260507050449 15 135 3.2 3.2 0.00 0.00 0.00 47 1018.5
20260507044846 15 85 1.6 3.2 0.00 0.00 0.00 46 1018.4
20260507044041 15 135 4.8 6.4 0.00 0.00 0.00 46 1018.3
20260507043239 15 135 3.2 4.8 0.00 0.00 0.00 45 1018.3
20260507042441 16 78 1.6 3.2 0.00 0.00 0.00 45 1018.2
20260507042036 16 130 3.2 3.2 0.00 0.00 0.00 45 1018.2
20260507041233 16 135 3.2 4.8 0.00 0.00 0.00 44 1018.2
20260507040832 16 135 4.8 4.8 0.00 0.00 0.00 44 1018.1
20260507040029 16 135 3.2 3.2 0.00 0.00 0.00 43 1018.0
20260507034824 16 121 3.2 3.2 0.00 0.00 0.00 43 1017.8
20260507034427 16 87 3.2 4.8 0.00 0.00 0.00 42 1017.9
20260507034022 17 83 4.8 4.8 0.00 0.00 0.00 42 1017.8
20260507033621 17 92 4.8 6.4 0.00 0.00 0.00 41 1017.8
20260507033222 17 85 4.8 6.4 0.00 0.00 0.00 41 1017.8
20260507032417 17 81 3.2 3.2 0.00 0.00 0.00 40 1017.6
20260507032015 17 132 3.2 4.8 0.00 0.00 0.00 40 1017.6
20260507031213 17 105 4.8 8.0 0.00 0.00 0.00 39 1017.4
20260507030812 18 130 6.4 6.4 0.00 0.00 0.00 39 1017.5
20260507030410 18 135 4.8 4.8 0.00 0.00 0.00 38 1017.5
20260507025207 18 112 6.4 6.4 0.00 0.00 0.00 37 1017.2
20260507024805 18 126 3.2 6.4 0.00 0.00 0.00 36 1017.2
20260507024405 18 112 6.4 9.7 0.00 0.00 0.00 36 1017.1
20260507024003 19 108 6.4 9.7 0.00 0.00 0.00 35 1017.1
20260507023601 19 110 6.4 11.3 0.00 0.00 0.00 35 1017.0
20260507023202 19 130 6.4 8.0 0.00 0.00 0.00 34 1016.9
20260507022804 20 132 4.8 17.7 0.00 0.00 0.00 34 1016.9
20260507022403 20 137 8.0 24.1 0.00 0.00 0.00 34 1016.8
20260507021957 20 132 19.3 24.1 0.00 0.00 0.00 33 1016.8
20260507021555 20 135 12.9 19.3 0.00 0.00 0.00 33 1016.7
20260507021153 20 135 9.7 16.1 0.00 0.00 0.00 32 1016.7
20260507020752 21 135 16.1 17.7 0.00 0.00 0.00 32 1016.7
20260507015950 21 135 11.3 16.1 0.00 0.00 0.00 31 1016.6
20260507015549 21 137 9.7 17.7 0.00 0.00 0.00 31 1016.5
20260507015153 22 135 12.9 16.1 0.00 0.00 0.00 31 1016.5
20260507014746 22 132 11.3 14.5 0.00 0.00 0.00 30 1016.5
20260507013943 22 135 14.5 14.5 0.00 0.00 0.00 30 1016.5
20260507013545 23 132 9.7 14.5 0.00 0.00 0.00 29 1016.5
20260507012339 25 135 11.3 14.5 0.00 0.00 0.00 29 1016.5
20260507010735 26 190 6.4 12.9 0.00 0.00 0.00 28 1016.5
20260507010332 26 191 9.7 11.3 0.00 0.00 0.00 28 1016.3
20260507005930 26 204 11.3 11.3 0.00 0.00 0.00 27 1016.4
20260507005529 26 22 3.2 19.3 0.00 0.00 0.00 27 1016.3
20260507005129 26 180 4.8 11.3 0.00 0.00 0.00 27 1016.4
20260507003925 26 185 6.4 16.1 0.00 0.00 0.00 27 1016.3
20260507003523 26 200 9.7 14.5 0.00 0.00 0.00 27 1016.3
20260507003121 26 184 1.6 12.9 0.00 0.00 0.00 26 1016.4
20260507002720 26 154 3.2 14.5 0.00 0.00 0.00 26 1016.4
20260507001923 27 191 6.4 12.9 0.00 0.00 0.00 26 1016.4
20260507001516 27 185 14.5 19.3 0.00 0.00 0.00 26 1016.3
20260507001116 27 230 4.8 14.5 0.00 0.00 0.00 26 1016.4
20260507000714 27 174 6.4 16.1 0.00 0.00 0.00 26 1016.3
20260507000314 27 172 8.0 16.1 0.00 0.00 0.00 25 1016.4
20260506235913 27 180 9.7 14.5 0.00 0.00 0.00 26 1016.2
20260506235543 27 182 3.2 9.7 0.00 0.00 0.00 25 1016.3
20260506235511 27 182 3.2 9.7 0.00 0.00 0.00 25 1016.3
20260506234707 27 150 4.8 16.1 0.00 0.00 0.00 25 1016.4
20260506233504 27 166 11.3 12.9 0.00 0.00 0.00 25 1016.3
20260506233103 27 139 9.7 12.9 0.00 0.00 0.00 25 1016.3
20260506232701 27 231 6.4 9.7 0.00 0.00 0.00 25 1016.3
20260506231858 26 128 4.8 14.5 0.00 0.00 0.00 25 1016.4
20260506231457 26 168 3.2 14.5 0.00 0.00 0.00 25 1016.4
20260506231056 27 135 12.9 17.7 0.00 0.00 0.00 24 1016.4
20260506230655 27 112 4.8 17.7 0.00 0.00 0.00 24 1016.4
20260506230254 27 155 12.9 14.5 0.00 0.00 0.00 24 1016.5
20260506225852 28 216 6.4 16.1 0.00 0.00 0.00 25 1016.5
20260506225049 29 151 1.6 11.3 0.00 0.00 0.00 24 1016.6
20260506224649 29 144 4.8 16.1 0.00 0.00 0.00 24 1016.5
20260506224249 28 172 6.4 14.5 0.00 0.00 0.00 24 1016.6
20260506223846 28 187 8.0 16.1 0.00 0.00 0.00 24 1016.7
20260506223444 28 139 12.9 17.7 0.00 0.00 0.00 24 1016.7
20260506222642 29 182 6.4 16.1 0.00 0.00 0.00 24 1017.0
20260506221839 29 120 4.8 16.1 0.00 0.00 0.00 24 1017.1
20260506221439 29 186 12.9 14.5 0.00 0.00 0.00 24 1017.0
20260506220635 28 200 6.4 14.5 0.00 0.00 0.00 24 1017.1
20260506220234 28 168 3.2 14.5 0.00 0.00 0.00 24 1017.1
20260506215032 29 160 8.0 14.5 0.00 0.00 0.00 25 1017.3
20260506214629 29 45 4.8 9.7 0.00 0.00 0.00 25 1017.3
20260506213827 29 177 11.3 12.9 0.00 0.00 0.00 25 1017.4
20260506213425 29 157 3.2 8.0 0.00 0.00 0.00 24 1017.5
20260506213024 29 210 3.2 11.3 0.00 0.00 0.00 24 1017.5
20260506212623 29 154 1.6 19.3 0.00 0.00 0.00 26 1017.6
20260506212221 29 157 8.0 12.9 0.00 0.00 0.00 26 1017.6
20260506211420 29 150 11.3 14.5 0.00 0.00 0.00 26 1017.6
20260506211017 29 209 1.6 11.3 0.00 0.00 0.00 26 1017.7
20260506210617 29 145 4.8 0.0 0.00 0.00 0.00 1017.7
20260506210217 29 207 9.7 12.9 0.00 0.00 0.00 26 1017.7
20260506205412 29 157 6.4 12.9 0.00 0.00 0.00 26 1017.8
20260506205011 29 0 4.8 14.5 0.00 0.00 0.00 26 1017.8
20260506204610 28 137 9.7 12.9 0.00 0.00 0.00 26 1017.8
20260506204209 28 163 8.0 16.1 0.00 0.00 0.00 27 1017.9
20260506203807 28 135 16.1 16.1 0.00 0.00 0.00 27 1017.9
20260506202603 29 135 9.7 11.3 0.00 0.00 0.00 27 1017.9
20260506202203 28 182 8.0 11.3 0.00 0.00 0.00 27 1018.0
20260506201400 27 132 11.3 11.3 0.00 0.00 0.00 27 1018.2
20260506200958 27 186 8.0 19.3 0.00 0.00 0.00 27 1018.3
20260506200155 26 160 1.6 17.7 0.00 0.00 0.00 27 1018.3
20260506195754 25 135 6.4 19.3 0.00 0.00 0.00 27 1018.4
20260506195358 26 85 16.1 17.7 0.00 0.00 0.00 27 1018.3
20260506194550 25 135 16.1 29.0 0.00 0.00 0.00 27 1018.3
20260506194149 25 135 16.1 16.1 0.00 0.00 0.00 27 1018.4
20260506193748 25 146 17.7 19.3 0.00 0.00 0.00 27 1018.4
20260506193347 26 137 9.7 25.7 0.00 0.00 0.00 26 1018.5
20260506192143 28 117 9.7 17.7 0.00 0.00 0.00 26 1018.6
20260506191745 28 135 9.7 11.3 0.00 0.00 0.00 25 1018.5
20260506190939 29 270 4.8 6.4 0.00 0.00 0.00 26 1018.8
20260506190539 28 174 1.6 9.7 0.00 0.00 0.00 26 1018.8
20260506190136 28 216 6.4 9.7 0.00 0.00 0.00 26 1018.8
20260506185734 27 270 6.4 6.4 0.00 0.00 0.00 26 1018.8
20260506184531 27 41 6.4 9.7 0.00 0.00 0.00 26 1018.8
20260506183729 28 279 9.7 12.9 0.00 0.00 0.00 26 1018.9
20260506183327 28 245 4.8 17.7 0.00 0.00 0.00 26 1018.9
20260506182926 27 270 4.8 12.9 0.00 0.00 0.00 27 1019.0
20260506182525 27 90 3.2 14.5 0.00 0.00 0.00 27 1018.9
20260506182124 26 153 11.3 14.5 0.00 0.00 0.00 27 1019.0
20260506180521 26 236 6.4 11.3 0.00 0.00 0.00 27 1019.0
20260506180120 25 267 11.3 14.5 0.00 0.00 0.00 27 1019.1
20260506175716 23 292 12.9 16.1 0.00 0.00 0.00 27 1019.1
20260506175318 24 6 14.5 16.1 0.00 0.00 0.00 27 1019.1
20260506174515 24 40 1.6 14.5 0.00 0.00 0.00 28 1019.2
20260506173709 23 28 8.0 16.1 0.00 0.00 0.00 28 1019.3
20260506173313 23 28 6.4 16.1 0.00 0.00 0.00 28 1019.2
20260506173311 23 28 6.4 16.1 0.00 0.00 0.00 28 1019.2
20260506172907 23 25 4.8 12.9 0.00 0.00 0.00 28 1019.2
20260506172506 23 182 1.6 4.8 0.00 0.00 0.00 29 1019.2
20260506172107 23 355 6.4 11.3 0.00 0.00 0.00 29 1019.1
20260506171301 25 140 4.8 4.8 0.00 0.00 0.00 30 1019.1
20260506170900 25 182 0.0 3.2 0.00 0.00 0.00 30 1019.2
20260506170503 25 299 1.6 3.2 0.00 0.00 0.00 31 1019.2
20260506165656 24 249 4.8 4.8 0.00 0.00 0.00 32 1019.1
20260506165256 24 310 0.0 4.8 0.00 0.00 0.00 33 1019.0
20260506163658 22 27 4.8 6.4 0.00 0.00 0.00 35 1019.1
20260506163251 22 81 4.8 8.0 0.00 0.00 0.00 35 1019.1
20260506162854 22 121 6.4 8.0 0.00 0.00 0.00 36 1019.1
20260506162446 22 177 1.6 8.0 0.00 0.00 0.00 37 1019.1
20260506162058 21 135 6.4 11.3 0.00 0.00 0.00 37 1019.1
20260506161649 22 135 11.3 11.3 0.00 0.00 0.00 38 1019.1
20260506160842 22 211 1.6 8.0 0.00 0.00 0.00 40 1019.2
20260506160441 22 122 4.8 4.8 0.00 0.00 0.00 40 1019.2
20260506155637 21 150 1.6 8.0 0.00 0.00 0.00 42 1019.3
20260506155237 21 135 4.8 4.8 0.00 0.00 0.00 43 1019.3
20260506154835 20 300 0.0 6.4 0.00 0.00 0.00 44 1019.2
20260506154512 20 339 1.6 4.8 0.00 0.00 0.00 45 1019.3
20260506154433 20 339 1.6 4.8 0.00 0.00 0.00 45 1019.3
20260506154032 19 135 1.6 8.0 0.00 0.00 0.00 45 1019.4
20260506153631 19 117 8.0 8.0 0.00 0.00 0.00 46 1019.3
20260506153229 19 109 0.0 4.8 0.00 0.00 0.00 47 1019.4
20260506152427 19 182 0.0 1.6 0.00 0.00 0.00 49 1019.4
20260506152025 19 135 3.2 4.8 0.00 0.00 0.00 50 1019.5
20260506151223 18 112 1.6 3.2 0.00 0.00 0.00 52 1019.5
20260506151016 18 321 0.0 1.6 0.00 0.00 0.00 52 1019.5
20260506150822 18 321 0.0 1.6 0.00 0.00 0.00 52 1019.5
20260506150424 18 78 0.0 1.6 0.00 0.00 0.00 53 1019.5
20260506145617 17 225 0.0 1.6 0.00 0.00 0.00 54 1019.4
20260506145218 17 232 0.0 1.6 0.00 0.00 0.00 55 1019.5
20260506144046 15 315 0.0 0.0 0.00 0.00 0.00 56 1019.5
20260506144013 15 315 0.0 0.0 0.00 0.00 0.00 56 1019.5
20260506143613 15 166 0.0 0.0 0.00 0.00 0.00 57 1019.5
20260506142808 14 310 0.0 0.0 0.00 0.00 0.00 58 1019.5
20260506142411 13 279 0.0 1.6 0.00 0.00 0.00 58 1019.5
20260506142006 13 288 1.6 1.6 0.00 0.00 0.00 58 1019.4
20260506141605 12 279 0.0 1.6 0.00 0.00 0.00 58 1019.5
20260506141204 11 297 0.0 1.6 0.00 0.00 0.00 58 1019.4
20260506140802 11 30 1.6 1.6 0.00 0.00 0.00 58 1019.3
20260506140000 10 42 0.0 0.0 0.00 0.00 0.00 59 1019.1
20260506135157 10 270 0.0 0.0 0.00 0.00 0.00 59 1019.2
20260506134756 9 283 0.0 0.0 0.00 0.00 0.00 59 1019.1
20260506134355 9 270 0.0 0.0 0.00 0.00 0.00 59 1019.0
20260506133552 8 274 0.0 0.0 0.00 0.00 0.00 59 1019.1
20260506131946 7 279 0.0 0.0 0.00 0.00 0.00 59 1019.0
20260506131545 6 303 0.0 0.0 0.00 0.00 0.00 59 1019.0
20260506130743 6 235 0.0 0.0 0.00 0.00 0.00 58 1018.8
20260506130343 7 135 0.0 0.0 0.00 0.00 0.00 58 1018.8
20260506125942 7 202 0.0 0.0 0.00 0.00 0.00 58 1018.7
20260506125539 376 234 0.0 1.6 0.00 0.00 0.00 58 1018.6
20260506124335 6 324 0.0 3.2 0.00 0.00 0.00 58 1018.8
20260506123938 6 346 3.2 3.2 0.00 0.00 0.00 58 1018.8
20260506123535 7 312 0.0 0.0 0.00 0.00 0.00 58 1018.6
20260506123332 7 308 0.0 0.0 0.00 0.00 0.00 58 1018.6
20260506123131 7 308 0.0 0.0 0.00 0.00 0.00 58 1018.6
20260506122730 7 288 0.0 0.0 0.00 0.00 0.00 58 1018.6
20260506122330 7 81 0.0 0.0 0.00 0.00 0.00 58 1018.5
20260506121930 7 216 0.0 0.0 0.00 0.00 0.00 58 1.0
20260506121529 7 237 0.0 0.0 0.00 0.00 0.00 58 1018.4
20260506120723 7 180 0.0 0.0 0.00 0.00 0.00 58 1018.4
20260506120322 7 182 0.0 1.6 0.00 0.00 0.00 58 1018.4
20260506115921 7 227 0.0 1.6 0.00 0.00 0.00 58 1018.4
20260506115520 7 274 0.0 1.6 0.00 0.00 0.00 58 1018.5
20260506115119 7 337 0.0 1.6 0.00 0.00 0.00 58 1018.4
20260506114719 7 337 0.0 0.0 0.00 0.00 0.00 58 1018.3
20260506114316 7 274 0.0 0.0 0.00 0.00 0.00 58 1018.3
20260506113915 7 274 0.0 0.0 0.00 0.00 0.00 58 1018.3
20260506113513 7 274 0.0 0.0 0.00 0.00 0.00 58 1018.2
20260506113112 7 306 0.0 0.0 0.00 0.00 0.00 58 1018.3
20260506112711 7 315 0.0 0.0 0.00 0.00 0.00 58 1018.3
20260506112310 7 306 0.0 0.0 0.00 0.00 0.00 58 1018.2
20260506111908 7 42 0.0 0.0 0.00 0.00 0.00 58 1018.2
20260506111541 7 42 0.0 0.0 0.00 0.00 0.00 58 1018.3
20260506111507 7 42 0.0 0.0 0.00 0.00 0.00 58 1018.3
20260506111142 7 310 0.0 0.0 0.00 0.00 0.00 58 1018.3
20260506111106 7 310 0.0 0.0 0.00 0.00 0.00 58 1018.3